Location: Unspecified
(0.0000°N, 0.0000°E)
Time: 23:58:30
(UTC+00:00)

S-56A Canister/Altair - Pass Details

Date: 22 December 2018
Orbit: 633 x 2500 km, 38.9° (Epoch: 18 January)

Event Time Altitude Azimuth Distance (km) Brightness Sun altitude
Rises 09:51:13 0° 302° (WNW) 6,083 11.7 51.2°
Reaches altitude 10° 09:55:13 10° 299° (WNW) 5,139 11.5 52.0°
Maximum altitude 10:10:01 59° 223° (SW) 2,640 11.0 54.7°
Drops below altitude 10° 10:22:24 10° 146° (SE) 4,350 12.1 56.9°
Sets 10:25:31 0° 142° (SE) 5,126 12.2 57.5°
